Date,TemperatureHighF,TemperatureAvgF,TemperatureLowF,DewpointHighF,DewpointAvgF,DewpointLowF,HumidityHigh,HumidityAvg,HumidityLow,PressureMaxIn,PressureMinIn,WindSpeedMaxMPH,WindSpeedAvgMPH,GustSpeedMaxMPH,PrecipitationSumIn
2013-10-1,76,59,57,66,44,-100,92,73,59,30.01,29.90,10,-91,14,0.00
2013-10-2,81,67,62,66,52,-100,93,70,54,30.00,29.91,12,-67,20,0.00
2013-10-3,73,63,66,64,47,-100,89,70,62,30.10,29.99,7,-89,13,0.00
2013-10-4,78,64,64,69,49,-100,95,76,66,30.06,29.96,11,-103,20,0.00
2013-10-5,72,62,64,67,52,-100,97,86,84,30.07,29.99,10,-80,16,0.20
2013-10-6,70,58,65,69,42,-100,100,83,95,30.07,30.00,8,-150,13,0.00
2013-10-7,74,68,62,70,64,-100,100,91,82,30.00,29.81,29,-9,37,0.01
2013-10-8,64,61,55,56,50,47,81,67,53,30.27,29.98,13,10,20,0.00
2013-10-9,64,60,60,54,50,-100,80,72,59,30.34,30.23,24,-2,34,0.00
2013-10-10,64,61,58,62,59,54,97,92,79,30.23,30.00,28,22,40,0.00
2013-10-11,63,62,62,62,61,61,98,96,94,30.00,29.93,27,17,41,0.00
2013-10-12,64,63,62,60,59,56,92,86,79,30.21,30.00,27,21,37,0.00
2013-10-13,62,61,59,58,55,52,88,81,74,30.35,30.21,26,19,36,0.00
2013-10-14,61,59,59,54,53,51,84,79,73,30.34,30.24,16,9,23,0.00
2013-10-15,63,61,55,59,54,51,91,80,69,30.25,30.10,13,8,17,0.00
2013-10-16,63,62,60,60,59,58,95,92,89,30.08,30.00,11,8,16,0.00
2013-10-17,68,63,60,64,61,60,97,94,85,29.93,29.74,11,5,18,0.00
2013-10-18,66,61,56,64,52,47,95,71,54,29.97,29.70,18,11,29,0.00
2013-10-19,57,53,51,50,47,44,86,80,73,29.99,29.96,9,3,12,0.00
2013-10-20,61,55,50,58,45,39,94,68,44,30.08,29.77,17,9,26,0.00
2013-10-21,63,54,47,50,41,-100,86,66,47,30.17,30.04,13,-30,23,0.00
2013-10-22,68,55,54,54,38,-100,88,68,52,29.99,29.76,16,-78,24,0.00
2013-10-23,54,44,46,50,24,-100,95,68,64,29.82,29.59,14,-134,22,0.19
2013-10-24,51,41,41,40,20,-100,89,60,45,30.04,29.77,17,-111,29,0.00
2013-10-25,53,42,37,38,26,-100,84,64,48,30.25,30.04,15,-62,30,0.00
2013-10-26,55,44,38,45,26,-100,83,62,47,30.24,29.92,20,-74,28,0.00
2013-10-27,56,47,46,41,28,-100,73,58,47,30.14,29.88,15,-65,24,0.00
2013-10-28,60,47,41,50,29,-100,89,64,45,30.28,30.12,9,-82,15,0.00
2013-10-29,56,50,53,49,33,-100,80,66,58,30.39,30.28,17,-74,23,0.00
2013-10-30,55,48,47,54,36,-100,95,81,70,30.35,30.20,6,-91,9,0.04
2013-10-31,63,54,53,61,40,-100,95,81,85,30.23,29.83,15,-105,26,0.01